Location: Battersea Observatory
(44.4318°N, 76.3841°W)
Time: 21:03:41
(UTC-04:00)

Tiros 1 despin weight - Pass Details

Date: 22 January 2022
Orbit: 592 x 639 km, 48.2° (Epoch: 25 May)

Event Time Altitude Azimuth Distance (km) Brightness Sun altitude
Rises 01:12:36 0° 284° (WNW) 2,943 - -62.7°
Reaches altitude 10° 01:15:42 10° 263° (W) 2,031 - -62.4°
Maximum altitude 01:18:33 16° 225° (SW) 1,656 - -62.1°
Drops below altitude 10° 01:21:24 10° 188° (S) 2,020 - -61.9°
Sets 01:24:29 0° 167° (SSE) 2,920 - -61.5°
